GW4109 Weather Reports


time (UTC)temp
F
wind
direction
speed
knots
gust
knots
rain 1hr
in
rain 24hr
in
rain mn
in
humidity
%
barometer
mb
20260831002554 103 327 5.2 13.0 0.00 0.00 0.00 22 1010.7
20260831002049 103 290 7.0 15.6 0.00 0.00 0.00 21 1010.8
20260831001544 104 242 14.8 20.0 0.00 0.00 0.00 21 1010.8
20260831001041 104 275 7.8 18.2 0.00 0.00 0.00 21 1010.7
20260831000537 104 248 7.8 12.2 0.00 0.00 0.00 21 1010.6
20260831000036 104 260 6.1 12.2 0.00 0.00 0.00 21 1010.8
20260830235535 104 255 16.5 18.2 0.00 0.00 0.00 21 1010.8
20260830235030 104 249 12.2 19.1 0.00 0.00 0.00 21 1010.7
20260830234525 106 272 7.8 11.3 0.00 0.00 0.00 20 1010.8
20260830234020 105 238 7.8 16.5 0.00 0.00 0.00 21 1010.7
20260830233515 105 260 7.0 14.8 0.00 0.00 0.00 21 1010.9
20260830233012 105 253 13.9 20.0 0.00 0.00 0.00 21 1010.8
20260830232508 105 264 6.1 15.6 0.00 0.00 0.00 21 1010.9
20260830232004 105 247 10.4 16.5 0.00 0.00 0.00 20 1010.8
20260830231459 105 246 13.0 14.8 0.00 0.00 0.00 20 1011.0
20260830230958 106 250 4.3 14.8 0.00 0.00 0.00 20 1010.9
20260830230454 106 261 7.8 13.0 0.00 0.00 0.00 21 1011.0
20260830225952 107 254 8.7 13.9 0.00 0.00 0.00 20 1011.0
20260830225449 106 287 5.2 13.9 0.00 0.00 0.00 20 1011.1
20260830224948 107 238 12.2 13.9 0.00 0.00 0.00 20 1011.0
20260830224447 107 245 7.0 19.1 0.00 0.00 0.00 20 1011.1
20260830223944 107 232 8.7 13.0 0.00 0.00 0.00 19 1011.2
20260830223440 107 233 14.8 17.4 0.00 0.00 0.00 20 1011.2
20260830222939 107 227 9.6 18.2 0.00 0.00 0.00 20 1011.1
20260830222435 108 228 5.2 12.2 0.00 0.00 0.00 20 1011.2
20260830221930 108 245 7.8 16.5 0.00 0.00 0.00 20 1011.4
20260830221426 108 249 11.3 13.0 0.00 0.00 0.00 19 1011.5
20260830220921 107 250 12.2 20.0 0.00 0.00 0.00 20 1011.2
20260830220416 107 254 10.4 14.8 0.00 0.00 0.00 20 1011.5
20260830215913 106 237 12.2 14.8 0.00 0.00 0.00 21 1011.7
20260830215408 107 267 7.0 15.6 0.00 0.00 0.00 20 1011.7
20260830214903 108 246 16.5 18.2 0.00 0.00 0.00 20 1011.7
20260830214358 109 213 5.2 13.0 0.00 0.00 0.00 19 1011.6
20260830213852 108 232 3.5 11.3 0.00 0.00 0.00 19 1011.8
20260830213343 109 227 7.8 10.4 0.00 0.00 0.00 18 1012.0
20260830212838 108 241 5.2 11.3 0.00 0.00 0.00 18 1011.7
20260830212334 108 226 6.1 13.9 0.00 0.00 0.00 18 1012.1
20260830211832 108 261 5.2 12.2 0.00 0.00 0.00 19 1012.2
20260830211327 107 253 6.1 12.2 0.00 0.00 0.00 19 1012.3
20260830210823 109 290 3.5 5.2 0.00 0.00 0.00 19 1012.2
20260830210322 109 107 1.7 4.3 0.00 0.00 0.00 19 1012.3
20260830205820 107 94 3.5 6.1 0.00 0.00 0.00 19 1012.4
20260830205314 106 103 5.2 8.7 0.00 0.00 0.00 19 1012.6
20260830204809 107 190 0.9 7.8 0.00 0.00 0.00 19 1012.4
20260830204308 108 78 3.5 6.1 0.00 0.00 0.00 19 1012.6
20260830203804 108 98 4.3 7.0 0.00 0.00 0.00 19 1012.7
20260830203300 109 39 1.7 3.5 0.00 0.00 0.00 18 1012.8
20260830202759 108 30 2.6 3.5 0.00 0.00 0.00 19 1012.6
20260830202254 108 81 0.9 4.3 0.00 0.00 0.00 19 1012.9
20260830201749 107 86 1.7 5.2 0.00 0.00 0.00 19 1012.8
20260830201243 107 5 1.7 6.1 0.00 0.00 0.00 19 1013.1
20260830200738 106 112 1.7 6.1 0.00 0.00 0.00 19 1012.9
20260830200238 106 70 3.5 7.0 0.00 0.00 0.00 19 1013.1
20260830195733 106 99 7.8 7.8 0.00 0.00 0.00 19 1013.1
20260830195231 107 93 7.0 10.4 0.00 0.00 0.00 18 1013.2
20260830194730 108 122 3.5 7.0 0.00 0.00 0.00 18 1013.0
20260830194225 107 63 2.6 3.5 0.00 0.00 0.00 19 1013.2
20260830193720 107 76 3.5 5.2 0.00 0.00 0.00 19 1013.2
20260830193214 105 298 0.9 5.2 0.00 0.00 0.00 19 1013.2
20260830192710 107 93 4.3 4.3 0.00 0.00 0.00 19 1013.5
20260830192205 107 100 4.3 7.8 0.00 0.00 0.00 18 1013.6
20260830191701 105 123 2.6 5.2 0.00 0.00 0.00 19 1013.4
20260830191155 105 131 3.5 8.7 0.00 0.00 0.00 19 1013.6
20260830190651 105 245 1.7 4.3 0.00 0.00 0.00 19 1013.7
20260830190146 106 128 3.5 6.1 0.00 0.00 0.00 19 1013.8
20260830185644 107 111 5.2 5.2 0.00 0.00 0.00 18 1013.9
20260830185140 106 359 1.7 2.6 0.00 0.00 0.00 19 1014.1
20260830184639 106 21 1.7 5.2 0.00 0.00 0.00 19 1014.1
20260830184133 106 98 1.7 4.3 0.00 0.00 0.00 19 1014.2
20260830183633 106 132 0.0 1.7 0.00 0.00 0.00 20 1014.2
20260830183130 106 355 1.7 3.5 0.00 0.00 0.00 19 1014.3
20260830182630 105 37 0.0 2.6 0.00 0.00 0.00 19 1014.3
20260830182126 104 301 2.6 5.2 0.00 0.00 0.00 20 1014.5
20260830181622 105 273 1.7 3.5 0.00 0.00 0.00 19 1014.3
20260830181121 104 211 1.7 4.3 0.00 0.00 0.00 20 1014.6
20260830180621 102 153 0.9 3.5 0.00 0.00 0.00 20 1014.4
20260830180120 102 60 2.6 2.6 0.00 0.00 0.00 21 1014.4
20260830175619 104 100 3.5 4.3 0.00 0.00 0.00 20 1014.6
20260830175115 103 117 2.6 4.3 0.00 0.00 0.00 20 1014.7
20260830174610 102 87 2.6 5.2 0.00 0.00 0.00 21 1014.9
20260830174106 103 31 2.6 5.2 0.00 0.00 0.00 20 1014.8
20260830173600 103 63 1.7 2.6 0.00 0.00 0.00 21 1014.6
20260830173055 101 42 1.7 4.3 0.00 0.00 0.00 22 1014.7
20260830172552 102 79 1.7 5.2 0.00 0.00 0.00 21 1014.7
20260830172048 101 93 4.3 4.3 0.00 0.00 0.00 22 1014.7
20260830171543 102 60 2.6 5.2 0.00 0.00 0.00 22 1014.8
20260830171038 101 267 0.0 1.7 0.00 0.00 0.00 22 1014.7
20260830170532 101 122 2.6 3.5 0.00 0.00 0.00 22 1014.9
20260830170031 100 174 0.0 1.7 0.00 0.00 0.00 22 1015.0
20260830165526 99 167 0.0 3.5 0.00 0.00 0.00 23 1014.9
20260830165022 98 69 2.6 6.1 0.00 0.00 0.00 24 1014.8
20260830164518 100 15 0.0 3.5 0.00 0.00 0.00 23 1014.9
20260830164014 100 77 1.7 2.6 0.00 0.00 0.00 23 1014.6
20260830163511 99 97 3.5 5.2 0.00 0.00 0.00 23 1014.9
20260830163010 98 89 0.9 4.3 0.00 0.00 0.00 24 1014.7
20260830162507 98 91 2.6 4.3 0.00 0.00 0.00 24 1014.6
20260830162006 98 84 1.7 3.5 0.00 0.00 0.00 24 1014.7
20260830161500 97 66 1.7 5.2 0.00 0.00 0.00 25 1014.7
20260830160955 97 116 1.7 3.5 0.00 0.00 0.00 25 1014.6
20260830160452 98 111 2.6 3.5 0.00 0.00 0.00 25 1014.5
20260830155946 98 155 1.7 3.5 0.00 0.00 0.00 25 1014.6
20260830155443 98 71 0.0 2.6 0.00 0.00 0.00 24 1014.7
20260830154937 97 141 0.0 1.7 0.00 0.00 0.00 25 1014.7
20260830154433 97 48 0.0 2.6 0.00 0.00 0.00 25 1014.6
20260830153925 97 233 0.0 1.7 0.00 0.00 0.00 25 1014.3
20260830153420 95 199 0.9 1.7 0.00 0.00 0.00 26 1014.4
20260830152919 93 296 0.0 1.7 0.00 0.00 0.00 27 1014.4
20260830152414 94 89 0.0 2.6 0.00 0.00 0.00 28 1014.4
20260830151907 95 213 0.9 0.9 0.00 0.00 0.00 27 1014.4
20260830151402 95 123 0.9 1.7 0.00 0.00 0.00 27 1014.5
20260830150857 96 73 0.9 1.7 0.00 0.00 0.00 26 1014.6
20260830150356 95 352 0.0 0.9 0.00 0.00 0.00 29 1014.5
20260830145851 94 7 0.0 1.7 0.00 0.00 0.00 28 1014.6
20260830145345 92 3 1.7 1.7 0.00 0.00 0.00 30 1014.5
20260830144840 93 325 0.0 1.7 0.00 0.00 0.00 30 1014.6
20260830144337 91 357 0.0 1.7 0.00 0.00 0.00 31 1014.5
20260830143832 91 309 0.9 1.7 0.00 0.00 0.00 30 1014.5
20260830143332 90 75 0.9 1.7 0.00 0.00 0.00 31 1014.4
20260830142826 88 353 0.9 2.6 0.00 0.00 0.00 33 1014.6
20260830142321 86 350 1.7 2.6 0.00 0.00 0.00 34 1014.6
20260830141816 86 318 2.6 2.6 0.00 0.00 0.00 35 1014.5
20260830141311 84 97 0.9 1.7 0.00 0.00 0.00 36 1014.5
20260830140807 83 268 0.0 0.9 0.00 0.00 0.00 37 1014.3
20260830140307 83 14 0.9 1.7 0.00 0.00 0.00 38 1014.4
20260830135801 83 9 0.9 1.7 0.00 0.00 0.00 37 1014.4
20260830135257 84 45 0.9 1.7 0.00 0.00 0.00 37 1014.3
20260830134752 84 71 0.0 2.6 0.00 0.00 0.00 35 1014.3
20260830134247 84 229 0.9 1.7 0.00 0.00 0.00 35 1014.1
20260830133743 84 226 0.0 1.7 0.00 0.00 0.00 35 1014.1
20260830133239 83 208 0.0 1.7 0.00 0.00 0.00 36 1014.0
20260830132734 82 157 0.9 1.7 0.00 0.00 0.00 37 1014.0
20260830132230 82 76 0.0 0.9 0.00 0.00 0.00 37 1013.9
20260830131728 81 197 0.9 2.6 0.00 0.00 0.00 37 1014.0
20260830131223 81 220 1.7 3.5 0.00 0.00 0.00 37 1013.9
20260830130724 80 238 0.9 2.6 0.00 0.00 0.00 38 1013.9
20260830130223 82 141 0.0 1.7 0.00 0.00 0.00 36 1013.9
20260830125718 82 89 0.0 0.9 0.00 0.00 0.00 36 1014.0
20260830125213 83 260 1.7 2.6 0.00 0.00 0.00 35 1013.9
20260830124711 84 293 0.9 0.9 0.00 0.00 0.00 35 1013.8
20260830124206 84 205 0.0 1.7 0.00 0.00 0.00 35 1013.8
20260830123657 85 113 0.0 1.7 0.00 0.00 0.00 35 1013.8
20260830123153 84 86 1.7 3.5 0.00 0.00 0.00 34 1013.8
20260830122650 84 258 1.7 1.7 0.00 0.00 0.00 34 1013.9
20260830122145 84 258 0.9 2.6 0.00 0.00 0.00 34 1014.0
20260830121641 86 278 0.0 1.7 0.00 0.00 0.00 34 1013.8
20260830121140 85 175 0.0 2.6 0.00 0.00 0.00 34 1014.0
20260830120635 85 251 2.6 2.6 0.00 0.00 0.00 34 1013.8
20260830120132 84 220 4.3 4.3 0.00 0.00 0.00 34 1013.9
20260830115628 84 245 2.6 3.5 0.00 0.00 0.00 34 1014.0
20260830115123 85 233 1.7 1.7 0.00 0.00 0.00 34 1013.8
20260830114620 85 154 1.7 2.6 0.00 0.00 0.00 34 1013.8
20260830114119 84 234 0.9 1.7 0.00 0.00 0.00 34 1013.9
20260830113615 84 166 0.0 1.7 0.00 0.00 0.00 35 1013.7
20260830113109 85 281 0.0 1.7 0.00 0.00 0.00 34 1013.8
20260830112606 85 65 0.0 1.7 0.00 0.00 0.00 34 1013.5
20260830112102 85 315 0.0 1.7 0.00 0.00 0.00 34 1013.5
20260830111557 85 258 0.0 0.9 0.00 0.00 0.00 34 1013.6
20260830111052 86 255 2.6 2.6 0.00 0.00 0.00 33 1013.5
20260830110547 86 240 2.6 3.5 0.00 0.00 0.00 33 1013.5
20260830110043 86 189 0.0 1.7 0.00 0.00 0.00 34 1013.4
20260830105537 87 129 0.9 2.6 0.00 0.00 0.00 33 1013.6
20260830105033 87 259 0.0 1.7 0.00 0.00 0.00 33 1013.3
20260830104530 88 150 1.7 1.7 0.00 0.00 0.00 32 1013.3
20260830104026 87 254 0.9 1.7 0.00 0.00 0.00 33 1013.4
20260830103521 87 306 1.7 2.6 0.00 0.00 0.00 33 1013.3
20260830103020 88 89 0.0 1.7 0.00 0.00 0.00 32 1013.1
20260830102519 88 288 0.0 1.7 0.00 0.00 0.00 32 1013.3
20260830102015 87 109 1.7 1.7 0.00 0.00 0.00 32 1013.1
20260830101510 87 236 0.0 1.7 0.00 0.00 0.00 32 1013.1
20260830101010 87 129 0.9 1.7 0.00 0.00 0.00 32 1013.3
20260830100509 87 119 0.0 2.6 0.00 0.00 0.00 32 1013.0
20260830100008 86 242 0.9 2.6 0.00 0.00 0.00 33 1013.1
20260830095504 86 246 0.9 1.7 0.00 0.00 0.00 33 1012.8
20260830094959 86 82 0.9 1.7 0.00 0.00 0.00 33 1012.9
20260830094455 87 148 0.0 1.7 0.00 0.00 0.00 33 1012.7
20260830093951 86 150 0.0 1.7 0.00 0.00 0.00 33 1012.7
20260830093446 85 227 0.9 1.7 0.00 0.00 0.00 34 1012.8
20260830092942 85 269 0.0 0.9 0.00 0.00 0.00 34 1012.9
20260830092437 86 79 0.9 1.7 0.00 0.00 0.00 33 1012.9
20260830091934 85 125 0.0 1.7 0.00 0.00 0.00 34 1012.6
20260830091434 86 84 0.0 0.9 0.00 0.00 0.00 33 1012.5
20260830090933 85 294 0.0 1.7 0.00 0.00 0.00 34 1012.7
20260830090429 86 244 0.9 1.7 0.00 0.00 0.00 33 1012.7
20260830085924 85 229 0.0 0.9 0.00 0.00 0.00 34 1012.8
20260830085418 85 243 0.0 1.7 0.00 0.00 0.00 34 1012.7
20260830084914 85 122 0.9 1.7 0.00 0.00 0.00 33 1012.7
20260830084409 85 98 0.0 1.7 0.00 0.00 0.00 34 1012.8
20260830083904 85 268 0.0 1.7 0.00 0.00 0.00 34 1012.6
20260830083400 85 267 0.9 1.7 0.00 0.00 0.00 34 1012.7
20260830082900 85 266 0.9 1.7 0.00 0.00 0.00 34 1012.9
20260830082355 85 304 0.0 0.9 0.00 0.00 0.00 34 1012.7
20260830081850 85 217 0.0 0.9 0.00 0.00 0.00 34 1012.7
20260830081344 85 309 0.0 1.7 0.00 0.00 0.00 34 1012.8
20260830080844 85 259 0.0 1.7 0.00 0.00 0.00 34 1012.8
20260830080341 87 255 0.0 1.7 0.00 0.00 0.00 33 1012.7
20260830075840 87 229 0.0 0.9 0.00 0.00 0.00 33 1013.0
20260830075335 86 111 0.0 0.9 0.00 0.00 0.00 33 1013.2
20260830074830 86 128 0.0 0.9 0.00 0.00 0.00 34 1013.1
20260830074326 86 293 0.0 1.7 0.00 0.00 0.00 33 1013.0
20260830073822 87 215 1.7 1.7 0.00 0.00 0.00 33 1013.0
20260830073317 88 139 0.9 1.7 0.00 0.00 0.00 33 1013.2
20260830072813 87 105 0.0 0.9 0.00 0.00 0.00 33 1013.0
20260830072308 86 55 0.9 1.7 0.00 0.00 0.00 34 1013.0
20260830071802 87 282 0.9 1.7 0.00 0.00 0.00 33 1013.2
20260830071301 88 204 0.0 1.7 0.00 0.00 0.00 32 1013.1
20260830070800 89 186 0.0 1.7 0.00 0.00 0.00 32 1013.1
20260830070255 90 109 0.0 1.7 0.00 0.00 0.00 32 1013.2
20260830065754 90 225 0.9 1.7 0.00 0.00 0.00 32 1013.2
20260830065249 91 85 1.7 2.6 0.00 0.00 0.00 31 1013.3
20260830064748 89 235 2.6 3.5 0.00 0.00 0.00 33 1013.2
20260830064244 89 21 0.0 1.7 0.00 0.00 0.00 33 1013.1
20260830063743 90 146 0.0 1.7 0.00 0.00 0.00 32 1013.0
20260830063237 90 106 1.7 2.6 0.00 0.00 0.00 32 1013.1
20260830062732 91 108 0.0 1.7 0.00 0.00 0.00 32 1013.1
20260830062226 91 89 0.0 1.7 0.00 0.00 0.00 31 1013.2
20260830061720 91 104 0.0 0.9 0.00 0.00 0.00 31 1013.1
20260830061216 90 278 0.0 1.7 0.00 0.00 0.00 31 1013.0
20260830060713 91 284 0.0 0.9 0.00 0.00 0.00 31 1013.2
20260830060209 92 74 0.9 1.7 0.00 0.00 0.00 31 1013.2
20260830055704 92 156 0.0 1.7 0.00 0.00 0.00 30 1013.1
20260830055201 92 78 0.0 1.7 0.00 0.00 0.00 30 1013.2
20260830054655 91 113 0.9 1.7 0.00 0.00 0.00 31 1013.2
20260830054150 92 269 0.9 2.6 0.00 0.00 0.00 31 1013.1
20260830053646 93 55 0.9 2.6 0.00 0.00 0.00 30 1013.2
20260830053145 95 101 0.9 1.7 0.00 0.00 0.00 29 1013.1
20260830052641 94 72 0.0 2.6 0.00 0.00 0.00 29 1013.1
20260830052136 94 83 0.0 1.7 0.00 0.00 0.00 29 1012.9
20260830051630 94 94 0.0 0.9 0.00 0.00 0.00 28 1013.1
20260830051127 94 117 0.0 2.6 0.00 0.00 0.00 29 1013.1
20260830050625 95 74 1.7 2.6 0.00 0.00 0.00 28 1013.1
20260830050121 96 329 0.0 2.6 0.00 0.00 0.00 27 1012.8
20260830045619 96 309 7.0 9.6 0.00 0.00 0.00 27 1013.1
20260830045114 96 325 6.1 7.0 0.00 0.00 0.00 28 1013.0
20260830044613 96 322 6.1 7.8 0.00 0.00 0.00 27 1013.1
20260830044108 96 51 0.9 5.2 0.00 0.00 0.00 27 1012.9
20260830043604 96 309 5.2 5.2 0.00 0.00 0.00 27 1012.8
20260830043103 96 332 1.7 3.5 0.00 0.00 0.00 27 1012.9
20260830042601 96 351 4.3 4.3 0.00 0.00 0.00 27 1012.7
20260830042056 96 338 1.7 3.5 0.00 0.00 0.00 28 1012.7
20260830041555 96 318 1.7 1.7 0.00 0.00 0.00 28 1012.6
20260830041054 96 316 4.3 8.7 0.00 0.00 0.00 27 1012.5
20260830040550 96 35 0.9 3.5 0.00 0.00 0.00 28 1012.3
20260830040046 96 69 0.9 5.2 0.00 0.00 0.00 28 1012.5
20260830035543 97 329 7.0 13.9 0.00 0.00 0.00 27 1012.5
20260830035039 97 326 7.8 13.0 0.00 0.00 0.00 28 1012.2
20260830034535 96 314 7.8 13.0 0.00 0.00 0.00 28 1011.7
20260830034033 96 316 7.8 11.3 0.00 0.00 0.00 29 1012.0
20260830033529 96 310 7.8 16.5 0.00 0.00 0.00 28 1011.8
20260830033024 96 322 9.6 14.8 0.00 0.00 0.00 29 1011.7
20260830032518 97 314 7.8 16.5 0.00 0.00 0.00 28 1011.8
20260830032013 97 311 9.6 19.1 0.00 0.00 0.00 29 1011.8
20260830031508 97 313 9.6 14.8 0.00 0.00 0.00 28 1011.7
20260830031003 97 295 5.2 12.2 0.00 0.00 0.00 29 1011.5
20260830030500 97 309 7.8 16.5 0.00 0.00 0.00 29 1011.6
20260830025959 97 294 7.0 17.4 0.00 0.00 0.00 29 1011.4
20260830025458 97 310 10.4 17.4 0.00 0.00 0.00 29 1011.5
20260830024958 97 307 9.6 13.9 0.00 0.00 0.00 28 1011.4
20260830024453 98 333 7.8 18.2 0.00 0.00 0.00 28 1011.2
20260830023950 98 283 6.1 14.8 0.00 0.00 0.00 27 1011.2
20260830023448 98 303 9.6 13.9 0.00 0.00 0.00 28 1011.3
20260830022943 98 311 9.6 13.0 0.00 0.00 0.00 28 1011.3
20260830022438 98 302 13.0 14.8 0.00 0.00 0.00 28 1011.1
20260830021934 98 289 10.4 13.0 0.00 0.00 0.00 28 1011.2
20260830021433 98 303 12.2 14.8 0.00 0.00 0.00 28 1011.1
20260830020928 98 309 8.7 13.9 0.00 0.00 0.00 28 1011.1
20260830020422 98 280 3.5 14.8 0.00 0.00 0.00 28 1011.3
20260830015917 99 234 9.6 12.2 0.00 0.00 0.00 28 1011.4
20260830015412 99 258 10.4 13.9 0.00 0.00 0.00 27 1011.5
20260830014907 99 269 4.3 10.4 0.00 0.00 0.00 28 1011.4
20260830014358 99 275 4.3 11.3 0.00 0.00 0.00 28 1011.3
20260830013854 100 297 9.6 10.4 0.00 0.00 0.00 28 1011.4
20260830013349 100 298 5.2 13.0 0.00 0.00 0.00 28 1011.4
20260830012844 100 286 5.2 10.4 0.00 0.00 0.00 27 1011.3
20260830012340 100 264 7.0 14.8 0.00 0.00 0.00 28 1011.3
20260830011836 101 274 8.7 10.4 0.00 0.00 0.00 27 1011.3
20260830011330 101 314 6.1 11.3 0.00 0.00 0.00 27 1011.2
20260830010825 103 310 8.7 13.0 0.00 0.00 0.00 26 1011.3
20260830010319 103 290 10.4 12.2 0.00 0.00 0.00 26 1011.2
20260830005814 103 271 8.7 13.9 0.00 0.00 0.00 26 1011.3
20260830005307 104 300 7.8 13.0 0.00 0.00 0.00 25 1011.3
20260830004806 105 306 6.1 14.8 0.00 0.00 0.00 24 1011.2
20260830004302 104 302 7.0 14.8 0.00 0.00 0.00 24 1011.2
20260830003755 105 285 7.8 15.6 0.00 0.00 0.00 24 1011.4
20260830003250 105 275 7.0 11.3 0.00 0.00 0.00 24 1011.1